Tracking 33407 objects as of 5-Mar-2026
HD Live streaming from Space Station
objects crossing your sky now

COSMOS 1420

Track COSMOS 1420 now!
10-day predictions
COSMOS 1420 is classified as:


NORAD ID: 13648
Int'l Code: 1982-109A
Perigee: 769.2 km
Apogee: 796.7 km
Inclination: 74.0 °
Period: 100.4 minutes
Semi major axis: 7153 km
RCS: 2.7828 m2 (large)
Launch date: November 11, 1982
Source: Commonwealth of Independent States (former USSR) (CIS)
Launch site: PLESETSK MISSILE AND SPACE COMPLEX (PKMTR)
Your satellite tracking list
Your tracking list is empty




NASA's NSSDC Master Catalog

Two Line Element Set (TLE):
1 13648U 82109A   26064.23005807  .00000226  00000-0  88761-4 0  9999
2 13648  73.9959  13.0799 0019235 150.5825 209.6414 14.34764799264676
Source of the keplerian elements: AFSPC